HB9CJD-1 Weather Reports


time (UTC)temp
C
wind
direction
speed
KPH
gust
KPH
rain 1hr
cm
rain 24hr
cm
rain mn
cm
humidity
%
barometer
mb
20260506193133 10 0 0.0 0.0 0.00 0.00 0.00 79 1013.9
20260506192130 10 0 0.0 0.0 0.00 0.00 0.00 79 1013.8
20260506191127 10 0 0.0 0.0 0.00 0.00 0.00 78 1013.6
20260506190123 10 0 0.0 0.0 0.00 0.00 0.00 77 1013.4
20260506185120 10 0 0.0 0.0 0.00 0.00 0.00 78 1013.4
20260506184117 10 0 0.0 0.0 0.00 0.00 0.00 77 1013.5
20260506183114 10 0 0.0 0.0 0.00 0.00 0.00 78 1013.2
20260506182110 10 0 0.0 0.0 0.00 0.00 0.00 78 1013.3
20260506181108 10 0 0.0 0.0 0.00 0.00 0.00 80 1013.3
20260506180104 10 0 0.0 0.0 0.00 0.00 0.00 79 1013.1
20260506175101 11 0 0.0 0.0 0.00 0.00 0.00 78 1012.9
20260506174057 11 0 0.0 0.0 0.00 0.00 0.00 78 1012.7
20260506173054 11 0 0.0 0.0 0.00 0.00 0.00 77 1012.6
20260506172051 11 0 0.0 0.0 0.00 0.00 0.00 79 1012.6
20260506171048 11 0 0.0 0.0 0.00 0.00 0.00 79 1012.5
20260506170044 10 0 0.0 0.0 0.00 0.00 0.00 80 1012.4
20260506165041 11 0 0.0 0.0 0.00 0.00 0.00 81 1012.5
20260506164038 11 0 0.0 0.0 0.00 0.00 0.00 82 1012.4
20260506163035 11 0 0.0 0.0 0.00 0.00 0.00 81 1012.4
20260506162032 11 0 0.0 0.0 0.00 0.00 0.00 84 1012.4
20260506161028 11 0 0.0 0.0 0.00 0.00 0.00 84 1012.4
20260506160025 11 0 0.0 0.0 0.00 0.00 0.00 86 1012.3
20260506155022 11 0 0.0 0.0 0.00 0.00 0.00 86 1012.5
20260506154019 10 0 0.0 0.0 0.00 0.00 0.00 84 1012.4
20260506153015 10 0 0.0 0.0 0.00 0.00 0.00 87 1012.4
20260506152012 10 0 0.0 0.0 0.00 0.00 0.00 84 1012.4
20260506151009 10 0 0.0 0.0 0.00 0.00 0.00 86 1012.4
20260506150006 10 0 0.0 0.0 0.00 0.00 0.00 84 1012.5
20260506145002 10 0 0.0 0.0 0.00 0.00 0.00 86 1012.4
20260506143959 10 0 0.0 0.0 0.00 0.00 0.00 89 1012.5
20260506142956 10 0 0.0 0.0 0.00 0.00 0.00 86 1012.4
20260506141952 10 0 0.0 0.0 0.00 0.00 0.00 90 1012.4
20260506140949 10 0 0.0 0.0 0.00 0.00 0.00 89 1012.3
20260506135946 10 0 0.0 0.0 0.00 0.00 0.00 93 1012.3
20260506134943 10 0 0.0 0.0 0.00 0.00 0.00 93 1012.2
20260506133940 10 0 0.0 0.0 0.00 0.00 0.00 90 1012.4
20260506132936 10 0 0.0 0.0 0.00 0.00 0.00 90 1012.4
20260506131933 10 0 0.0 0.0 0.00 0.00 0.00 90 1012.3
20260506130930 10 0 0.0 0.0 0.00 0.00 0.00 90 1012.2
20260506125926 10 0 0.0 0.0 0.00 0.00 0.00 91 1012.1
20260506124923 10 0 0.0 0.0 0.00 0.00 0.00 91 1011.9
20260506123920 10 0 0.0 0.0 0.00 0.00 0.00 89 1011.6
20260506122917 10 0 0.0 0.0 0.00 0.00 0.00 89 1011.3
20260506121913 11 0 0.0 0.0 0.00 0.00 0.00 85 1011.0
20260506120910 12 0 0.0 0.0 0.00 0.00 0.00 85 1010.7
20260506115908 12 0 0.0 0.0 0.00 0.00 0.00 84 1010.4
20260506114904 12 0 0.0 0.0 0.00 0.00 0.00 82 1010.4
20260506113901 12 0 0.0 0.0 0.00 0.00 0.00 78 1010.2
20260506112857 13 0 0.0 0.0 0.00 0.00 0.00 72 1010.1
20260506111854 13 0 0.0 0.0 0.00 0.00 0.00 73 1010.1
20260506110851 13 0 0.0 0.0 0.00 0.00 0.00 77 1009.9
20260506105848 13 0 0.0 0.0 0.00 0.00 0.00 76 1010.1
20260506104844 14 0 0.0 0.0 0.00 0.00 0.00 76 1010.0
20260506103841 13 0 0.0 0.0 0.00 0.00 0.00 76 1010.1
20260506102838 13 0 0.0 0.0 0.00 0.00 0.00 72 1010.1
20260506101835 13 0 0.0 0.0 0.00 0.00 0.00 75 1010.0
20260506100831 13 0 0.0 0.0 0.00 0.00 0.00 75 1010.1
20260506095828 13 0 0.0 0.0 0.00 0.00 0.00 76 1010.1
20260506094825 13 0 0.0 0.0 0.00 0.00 0.00 77 1010.2
20260506093822 13 0 0.0 0.0 0.00 0.00 0.00 79 1010.3
20260506092818 13 0 0.0 0.0 0.00 0.00 0.00 80 1010.2
20260506091815 13 0 0.0 0.0 0.00 0.00 0.00 80 1010.0
20260506090812 13 0 0.0 0.0 0.00 0.00 0.00 79 1010.0
20260506085809 12 0 0.0 0.0 0.00 0.00 0.00 82 1009.9
20260506084805 13 0 0.0 0.0 0.00 0.00 0.00 77 1010.1
20260506083802 13 0 0.0 0.0 0.00 0.00 0.00 74 1010.1
20260506082759 13 0 0.0 0.0 0.00 0.00 0.00 75 1010.1
20260506081756 13 0 0.0 0.0 0.00 0.00 0.00 77 1010.0
20260506080752 13 0 0.0 0.0 0.00 0.00 0.00 77 1009.9
20260506072739 13 0 0.0 0.0 0.00 0.00 0.00 79 1010.1
20260506071736 12 0 0.0 0.0 0.00 0.00 0.00 79 1010.1
20260506070733 12 0 0.0 0.0 0.00 0.00 0.00 83 1010.1
20260506061717 12 0 0.0 0.0 0.00 0.00 0.00 85 1010.2
20260506060713 11 0 0.0 0.0 0.00 0.00 0.00 88 1010.0
20260506050654 11 0 0.0 0.0 0.00 0.00 0.00 81 1010.1
20260506044648 11 0 0.0 0.0 0.00 0.00 0.00 80 1010.1
20260506043644 11 0 0.0 0.0 0.00 0.00 0.00 81 1010.2
20260506042641 11 0 0.0 0.0 0.00 0.00 0.00 80 1010.2
20260506041638 11 0 0.0 0.0 0.00 0.00 0.00 80 1010.2
20260506040634 11 0 0.0 0.0 0.00 0.00 0.00 80 1010.3
20260506035631 11 0 0.0 0.0 0.00 0.00 0.00 82 1010.5
20260506034628 11 0 0.0 0.0 0.00 0.00 0.00 79 1010.7
20260506033625 11 0 0.0 0.0 0.00 0.00 0.00 80 1010.7
20260506032621 11 0 0.0 0.0 0.00 0.00 0.00 81 1010.9
20260506031618 11 0 0.0 0.0 0.00 0.00 0.00 81 1010.9
20260506030615 11 0 0.0 0.0 0.00 0.00 0.00 81 1011.0
20260506025612 11 0 0.0 0.0 0.00 0.00 0.00 81 1011.0
20260506024608 11 0 0.0 0.0 0.00 0.00 0.00 82 1011.0
20260506023605 11 0 0.0 0.0 0.00 0.00 0.00 81 1011.2
20260506022602 11 0 0.0 0.0 0.00 0.00 0.00 83 1011.3
20260506021559 11 0 0.0 0.0 0.00 0.00 0.00 83 1011.4
20260506021049 11 0 0.0 0.0 0.00 0.00 0.00 83 1011.4
20260506020555 11 0 0.0 0.0 0.00 0.00 0.00 83 1011.4
20260506015552 12 0 0.0 0.0 0.00 0.00 0.00 82 1011.5
20260506014549 12 0 0.0 0.0 0.00 0.00 0.00 78 1011.6
20260506013546 12 0 0.0 0.0 0.00 0.00 0.00 83 1011.6
20260506012542 12 0 0.0 0.0 0.00 0.00 0.00 82 1011.8
20260506011539 12 0 0.0 0.0 0.00 0.00 0.00 82 1011.8
20260506010536 12 0 0.0 0.0 0.00 0.00 0.00 80 1011.8
20260506005533 12 0 0.0 0.0 0.00 0.00 0.00 79 1011.9
20260506004529 12 0 0.0 0.0 0.00 0.00 0.00 82 1011.8
20260506003526 12 0 0.0 0.0 0.00 0.00 0.00 82 1012.1
20260506002523 12 0 0.0 0.0 0.00 0.00 0.00 79 1012.0
20260506001520 12 0 0.0 0.0 0.00 0.00 0.00 80 1012.3
20260506000516 12 0 0.0 0.0 0.00 0.00 0.00 79 1012.4
20260505235513 12 0 0.0 0.0 0.00 0.00 0.00 75 1012.3
20260505234510 12 0 0.0 0.0 0.00 0.00 0.00 76 1012.3
20260505233507 12 0 0.0 0.0 0.00 0.00 0.00 76 1012.4
20260505232503 12 0 0.0 0.0 0.00 0.00 0.00 76 1012.5
20260505231500 12 0 0.0 0.0 0.00 0.00 0.00 76 1012.6
20260505230457 12 0 0.0 0.0 0.00 0.00 0.00 77 1012.6
20260505225454 12 0 0.0 0.0 0.00 0.00 0.00 78 1012.6
20260505224450 12 0 0.0 0.0 0.00 0.00 0.00 78 1012.7
20260505223448 12 0 0.0 0.0 0.00 0.00 0.00 78 1012.5
20260505222444 12 0 0.0 0.0 0.00 0.00 0.00 75 1012.6
20260505221441 13 0 0.0 0.0 0.00 0.00 0.00 75 1012.5
20260505220437 13 0 0.0 0.0 0.00 0.00 0.00 74 1012.7
20260505215434 13 0 0.0 0.0 0.00 0.00 0.00 77 1012.9
20260505214431 13 0 0.0 0.0 0.00 0.00 0.00 77 1012.9
20260505213428 13 0 0.0 0.0 0.00 0.00 0.00 75 1013.0
20260505212424 13 0 0.0 0.0 0.00 0.00 0.00 74 1013.0
20260505211421 13 0 0.0 0.0 0.00 0.00 0.00 74 1013.1
20260505210418 13 0 0.0 0.0 0.00 0.00 0.00 73 1013.1
20260505205415 13 0 0.0 0.0 0.00 0.00 0.00 73 1013.1
20260505204411 13 0 0.0 0.0 0.00 0.00 0.00 72 1013.1
20260505203408 13 0 0.0 0.0 0.00 0.00 0.00 72 1013.1
20260505202405 13 0 0.0 0.0 0.00 0.00 0.00 71 1013.0
20260505201402 13 0 0.0 0.0 0.00 0.00 0.00 72 1013.0
20260505200358 13 0 0.0 0.0 0.00 0.00 0.00 71 1012.9
20260505195355 13 0 0.0 0.0 0.00 0.00 0.00 71 1012.8
20260505194352 13 0 0.0 0.0 0.00 0.00 0.00 72 1012.7